Simultaneous Nadir Overpasses (SNOs) Predictions

Prediction of SNOs between GOES-15 and TERRA Satellite Orbit:

Table of predicted SNOs for the next 14.0 days since TLE Epoch: 11/28/2015
Index Date Time (GOES-15) GOES-15 Lat,Lon TERRA Lat,Lon Distance(km) Time Diff (sec)
1 11/29/2015 19:31:40 -0.16,-135.46 -0.13,-135.65 21.04 80
2 12/01/2015 19:19:27 -0.15,-135.45 -0.73,-132.68 314.73 80
3 12/02/2015 07:43:31 0.13,-135.43 -0.37,-137.87 277.89 80
4 12/04/2015 07:28:38 0.14,-135.41 0.25,-134.91 57.28 80
5 12/06/2015 07:16:25 0.14,-135.39 0.87,-131.94 392.04 80
6 12/06/2015 19:40:20 -0.12,-135.41 0.23,-137.10 192.13 80
7 12/08/2015 19:25:27 -0.13,-135.38 -0.40,-134.13 141.99 80
8 12/09/2015 07:49:30 0.11,-135.36 -0.75,-139.31 450.17 80
9 12/10/2015 19:13:14
